{"data":{"norad_id":65253,"intl_designator":"2025-179U","name":"STARLINK-34933","alt_names":[],"object_type":"PAYLOAD","status":"ACTIVE","operator":null,"country":"US","launch_date":"2025-08-18","launch_site_code":"AFWTR","launch_vehicle":null,"mission":null,"orbit_class":"UNKNOWN","rcs_meters":null,"size_class":null,"mass_kg":null,"dimensions":null,"purposes":["comms"],"wikipedia_slug":null,"has_3d_model":false,"image_url":null,"decayed_at":null,"tle_current":{"epoch":"2026-05-25T02:33:19.343232Z","epoch_age_seconds":65882,"freshness":"FRESH","line1":"1 65253U 25179U   26145.10647388  .00002425  00000+0  17204-3 0  9999","line2":"2 65253  97.4496 187.8718 0002495 125.2025 234.9436 15.05657882 43318","mean_motion":15.05657882,"eccentricity":0.0002495,"inclination_deg":97.4496,"raan_deg":187.8718,"arg_perigee_deg":125.2025,"mean_anomaly_deg":234.9436,"bstar":0.00017204,"rev_number":4331,"period_min":95.63925624905,"perigee_km":547.75853470878,"apogee_km":551.21541907325,"semimajor_km":6927.623976891,"source":"CELESTRAK","updated_at":"2026-05-25T13:38:20.727850Z"}}}